ATLAS 5 CENTAUR DEB, 44677

Orbit data source: Space-Track

ATLAS 5 CENTAUR DEB, 44677 is space debris in HEO originally from a launch on Wed, 17 Oct 2018 UTC launched from the Air Force Eastern Test Range (AFETR). Debris objects in space refer to the collection of defunct objects orbiting the Earth. Examples of debris include non-operational satellites, rocket bodies, and fragments generated from explosions, collisions, or faulty payload assembly.

Loading next visibility...
Identifier
44677, 2018-079AP
Orbit
HEO
Last TLE update
3 weeks ago
Origin
Manufacturer
ULA Decatur
Mission
Spacecraft
Bus & Motor
Unknown
Mass
Unknown
Launch date (UTC)
2018-10-17 (7 years ago)
Launch vehicle
Unknown
Launch site
Air Force Eastern Test Range (AFETR)
Object type
Payload
Rocket body
Debris
Shape & HBR
Unknown
Radar Cross Section
RCS unknown

Expand to show TLE details & history

TLE from 3 weeks ago
0 ATLAS 5 CENTAUR DEB
1 44677U 18079AP  25111.14665536 -.00000030  00000-0  00000-0 0  9993
2 44677  12.3663  88.9258 4453065 206.6840 121.1354  1.78533123 38241
Epoch: 2025-04-21T03:31Z
Definitive object data (Epoch: 2025-04-21T03:31:11.023Z)
Latitude
-0.00002°
Longitude
-173.36037°
Altitude
31,824.559 km
Speed
2.642 km/s
True Right ascension
05h 55m 36s
True Declination
0° 00' 00"
Sunlit
Object was in daylight at TLE epoch
Visualization TLE readout
Latitude
11.6839°
Longitude
-104.60876°
Altitude
28,225.95 km
Speed
3.025 km/s
Apparent Right ascension
09h 58m 00s
Apparent Declination
5° 08' 08"
Sunlit
Object is in daylight
Visualization observer readout
Local Sidereal Time
15:12:42
Azimuth
266.668° W
Elevation
11.974°
Doppler factor
1
Orbital elements
Apogee altitude
35,108.954 km
Perigee altitude
9,544.174 km
Semi-major axis
28,704.701 km
Eccentricity
0.4453065
Inclination
12.3663°
RAAN
88.9258°
Arg. of periapsis
206.684°
True anomaly
153.35124°
Mean anomaly
121.1354°
Eccentric anomaly
138.15602°
Mean motion
0.44629 °/min
BSTAR
Unknown
Orbital period
806.66 mins
Loading maneuver chart data...
Loading SW <> Apogee altitude chart data...

ATLAS 5 CENTAUR DEB Visibility forecast

Observer location: undefined°, undefined°

Span
Click to sort rows by Start time (UTC) header in descending order
Start Az.
Max El. time (UTC)
Max El. Az.
Max El.
End time (UTC)
End Az.
228 mins2025-05-09 07:03:46.424Z266.649° W2025-05-09 10:02:46.424Z207.4° SW27.29°2025-05-09 10:51:46.424Z143.46° SSE
|